Terminal Aerodrome Forecast
Issued by NWS Pittsburgh, PA

Current Version | Previous Version | Graphics & Text | Print | Product List | Glossary On
Versions: 1 2 3 4 5 6 7 8 9 10 11 12 13 14 15 16 17 18 19 20 21 22 23 24 25 26 27 28
000
FTUS41 KPBZ 220300 AAB
TAFPIT
TAF AMD
KPIT 220303Z 2203/2306 33008KT 5SM BR OVC006
      TEMPO 2203/2207 -DZ BR
     FM221300 33008KT P6SM BKN015 OVC025
     FM221500 33009KT P6SM BKN025
     FM222100 32008KT P6SM BKN035=

USA.gov is the U.S. government's official web portal to all federal, state and local government web resources and services.